CAPE
0 0 0 0 0 0 0 0 0 3 76 121 92 34 49 12 0 0 0 0 0 0
0 0 0 0 0 0 0 0 0 0 1 14 47 87 95 25 17 0 0 0 0 0
0 0 0 0 0 0 0 0 0 0 0 5 50 110 156 76 43 12 0 0 0 0
0 0 0 0 0 0 0 0 0 0 0 0 0 18 98 126 81 36 19 16 16 4
0 0 0 0 0 0 0 0 0 0 0 0 0 0 0 10 91 67 56 42 30 0
0 0 0 0 0 0 0 0 0 0 0 0 0 0 0 0 0 0 23 41 35 6
0 0 0 0 0 0 0 0 0 0 0 0 0 0 0 0 0 0 0 0 8 25
0 0 0 0 1 2 2 1 1 1 0 0 0 0 1 1 1 1 5 7 7 20
0 0 0 0 1 1 0 1 2 2 2 1 1 1 0 0 1 2 2 2 2 0
0 0 0 0 0 0 2 2 4 2 3 3 0 0 0 0 3 4 8 9 6 7
0 0 0 1 2 2 3 2 1 1 0 0 0 0 0 0 3 11 6 11 10 15
0 1 3 4 7 8 5 3 1 2 1 2 2 0 0 0 6 7 3 8 7 0
4 7 7 5 5 7 12 4 0 1 2 6 2 0 0 0 3 25 14 10 0 11
2 4 5 5 11 14 7 7 12 6 1 7 8 4 0 0 8 17 11 16 13 19
CIN
-0 -0 -0 -0 -0 -0 -0 -0 -0 -38 -113 -74 -62 -77 -59 -72 -0 -0 -0 -0 -0 -0
-0 -0 -0 -0 -0 -0 -0 -0 -0 -0 -92 -118 -63 -28 -20 -30 -29 -0 -0 -0 -0 -0
-0 -0 -0 -0 -0 -0 -0 -0 -0 -0 -0 -57 -56 -23 -4 -5 -5 -31 -0 -0 -0 -0
-0 -0 -0 -0 -0 -0 -0 -0 -0 -0 -0 -0 -0 -24 -12 -4 -5 -8 -14 -44 -65 -54
-0 -0 -0 -0 -0 -0 -0 -0 -0 -0 -0 -0 -0 -0 -0 -33 -1 -1 -2 -8 -10 -1
-0 -0 -0 -0 -0 -0 -0 -0 -0 -0 -0 -0 -0 -0 -0 -0 -0 -0 -4 -2 -2 -3
-0 -0 -0 -0 -0 -0 -0 -0 -0 -0 -0 -0 -0 -0 -0 -0 -0 -0 -0 -1 -2 -2
-0 -0 -0 -0 -1 -1 -2 -1 -2 -2 -2 -0 -0 -0 -1 -2 -1 -1 -2 -2 -3 -1
-0 -0 -0 -2 -2 -2 -2 -1 -1 -2 -1 -1 -1 -2 -0 -0 -2 -1 -3 -3 -1 -0
-0 -1 -2 -1 -1 -1 -1 -1 -1 -1 -1 -1 -0 -0 -0 -0 -2 -0 -1 -1 -0 -2
-0 -0 -1 -1 -1 -1 -1 -1 -0 -0 -0 -0 -0 -0 -1 -0 -1 -1 -1 -1 -1 -1
-2 -1 -1 -1 -0 -1 -0 -1 -0 -1 -0 -1 -1 -0 -0 -0 -1 -1 -1 -2 -2 -0
-1 -1 -1 -1 -1 -2 -0 -0 -0 -0 -0 -1 -1 -0 -0 -0 -0 -0 -0 -1 -0 -4
-1 -0 -1 -1 -1 -1 -1 -0 -2 -1 -0 -0 -0 -0 -0 -0 -1 -0 -1 -1 -1 -1
Wind_Speed
22 23 25 26 28 29 30 30 32 33 33 33 33 32 32 31 30 30 29 29 29 31
24 25 27 29 30 32 32 34 35 36 37 37 37 36 35 34 34 33 32 33 32 33
26 28 30 32 34 35 36 37 38 39 39 39 38 37 37 37 36 37 35 35 35 35
31 33 35 36 37 38 39 39 40 40 41 40 40 40 40 40 41 41 40 38 39 39
36 37 38 39 40 40 42 42 43 44 44 44 43 43 42 43 41 41 41 40 40 41
40 40 41 42 43 43 45 45 44 45 46 47 47 46 45 44 44 44 44 43 43 42
42 42 44 44 44 44 43 44 44 45 45 45 45 45 45 45 46 46 46 46 45 44
43 42 43 43 41 41 42 42 43 44 44 44 43 41 41 42 43 44 46 47 48 47
42 41 41 41 42 43 43 43 43 43 43 43 41 41 43 42 42 43 46 47 47 49
40 41 41 42 42 42 41 41 41 43 43 43 43 42 41 42 42 42 41 43 42 42
40 41 40 40 40 41 41 42 42 42 42 43 42 42 42 41 41 40 40 39 40 40
36 38 39 39 39 39 41 41 42 41 40 40 40 38 37 36 36 35 35 36 37 38
35 36 38 39 40 40 39 39 37 37 37 36 35 34 34 35 33 32 33 33 31 34
36 36 35 34 35 36 37 36 35 34 33 34 31 30 27 24 24 28 30 30 27 24
Wind_Direction
298 296 296 298 298 297 297 298 299 299 299 297 296 296 298 298 298 302 302 304 306 307
300 300 300 301 302 301 300 299 298 297 297 296 295 294 294 294 295 295 296 298 298 300
302 303 304 303 302 300 300 300 299 299 298 297 295 293 292 291 291 291 290 293 293 293
303 303 302 301 301 301 301 301 300 299 298 297 296 294 291 289 289 288 288 287 287 288
303 303 302 303 302 302 301 300 299 298 297 296 295 293 291 289 287 285 284 284 285 284
304 304 303 303 303 302 301 300 299 299 297 296 295 293 291 289 287 286 284 284 283 283
305 305 304 304 304 304 303 302 302 301 301 299 297 295 293 291 289 287 286 285 283 282
307 307 307 307 306 306 306 305 305 304 303 302 300 299 297 295 293 291 289 287 286 284
311 311 310 309 309 308 308 307 307 306 305 304 302 300 299 298 295 293 292 291 289 287
314 313 313 313 312 311 310 310 308 306 305 304 301 300 299 297 295 294 294 293 291 291
317 316 317 317 315 314 312 311 309 308 307 304 303 301 300 298 295 292 292 293 293 291
324 322 321 319 319 318 316 313 311 310 310 308 306 305 302 300 298 295 294 294 293 290
328 328 326 324 322 321 318 316 315 313 313 311 310 309 304 301 298 296 295 295 293 291
333 333 333 332 330 327 325 322 319 320 319 317 315 315 313 309 304 299 293 291 289 299